Location: Houhaj�rvi
(61.2667°N, 23.0167°E)
Time: 18:26:13
(UTC+00:00)

Meteor 1-19 Rocket - Pass Details

Date: 13 December 2019
Orbit: 816 x 918 km, 81.2° (Epoch: 16 January)

Event Time Altitude Azimuth Distance (km) Brightness Sun altitude
Rises 17:17:46 0° 194° (SSW) 3,360 7.5 -26.8°
Reaches altitude 10° 17:20:10 10° 194° (SSW) 2,422 6.7 -27.1°
Enters shadow 17:24:59 70° 186° (S) 874 4.1 -27.7°
